RunnerspaceNewsView

2011 Results - California CIF State Track and Field Championships

Published by Shane
Jun 5 2011, 05:44 PM | 237478 views
PrintReport
Social
Images
2011 Results - California CIF State Track and Field Championships
California CIF State Track and Field Championships
Jun 3, 2011 to Jun 4, 2011
Clovis, CA, US
 
| 100m | 200m | 400m | 800m | 1600m | 3200m | 100m Hurdles | 110m Hurdles | 300m Hurdles | 4x100m Relay | 4x400m Relay | Shot Put | Discus | High Jump | Long Jump | Triple Jump | Pole Vault
 
Mens Long Jump Back to top
  Name Yr School Finals Wind H# Pts
1 Slater, Jovonte 12 Vista Murrieta 24-10.50(7.58m) -0.3 1 10
2 Lee, Marquise 12 Serra (SS) 23-11.00(7.29m) +0.0 1 8
3 Hightower, Lee 12 Loyola 23-03.75(7.11m) +0.2 1 6
4 Root, Dillon 12 Redwood 23-03.00(7.09m) +0.0 1 5
5 Snow, Jaecob 12 El Camino 22-10.75(6.98m) +0.0 1 4
6 Rock, Ian 12 Davis Sr. 22-01.75(6.75m) -0.3 1 3
7 Rattler, Aaron 12 Escondido 21-09.00(6.63m) +0.8 1 2
8 Jones, Rico 12 Rodriguez 21-05.75(6.55m) -0.2 1 1
9 Cherry, Marquise 12 Diamond Ranch 21-05.50(6.54m) -0.3 1  
 
Mens Long Jump Back to top
  Name Yr School Prelims Wind H# Pts
1 Snow, Jaecob 12 El Camino 23-04.25(7.12m) +0.0 1  
2 Hightower, Lee 12 Loyola 23-03.25(7.09m) -0.1 1  
3 Slater, Jovonte 12 Vista Murrieta 23-01.75(7.05m) +0.3 1  
4 Root, Dillon 12 Redwood 23-01.50(7.05m) +0.8 1  
5 Cherry, Marquise 12 Diamond Ranch 23-01.25(7.04m) -0.1 1  
6 Lee, Marquise 12 Serra (SS) 22-10.25(6.97m) +0.8 1  
7 Rock, Ian 12 Davis Sr. 22-07.25(6.89m) +0.7 1  
8 Rattler, Aaron 12 Escondido 22-04.75(6.83m) +1.0 1  
9 Jones, Rico 12 Rodriguez 22-04.25(6.81m) +0.0 1  
9 Alexander, Willie 11 Central 22-04.25(6.81m) +0.2 1  
11 Wilson, Hansell 12 Valhalla 22-03.00(6.78m) +0.4 1  
12 Jackson, Johnny 12 St Augustine 22-00.50(6.72m) +0.0 1  
13 Dahlberg, Colin 12 Red Bluff 21-11.50(6.69m) -0.7 1  
14 Johnson, Travis 12 Morse 21-10.75(6.67m) +0.0 1  
15 Soares, Jourdan 11 Gilroy 21-10.50(6.67m) -1.0 1  
16 Menifield, Xavier 10 Sierra Canyon 21-09.75(6.65m) +0.0 1  
17 Collier, Ryan 12 Northwood 21-09.50(6.64m) +0.0 1  
18 Nelson, Quincy 12 Galileo Academy 21-06.75(6.57m) +2.0 1  
19 Moore, Nate 9 Bishop O'Dowd 21-05.75(6.55m) +0.0 1  
20 Lewis, Keith 11 Oakland Tech 21-01.50(6.44m) -0.1 1  
20 Monteiro-Williams, Jorda 11 McClatchy 21-01.50(6.44m) -1.2 1  
22 Grant, Jonte 12 Hayward 20-11.50(6.39m) -0.5 1  
23 Eggleston, Marcus 11 Dorsey 20-10.75(6.37m) +0.4 1  
24 Dellamorte, Stas 12 Menlo-Atherton 20-06.75(6.27m) +0.0 1  
25 Moran, Nick 11 McKinleyville 20-05.00(6.22m) nwi 1  
26 Johnson, Khalil 10 St Francis (Moun 20-00.75(6.12m) -0.5 1  
27 Singh, Amritpal 12 Independence 19-10.50(6.06m) nwi 1  
28 Adekayode, Kevin 12 Chatsworth 19-02.50(5.85m) +0.0 1  
 
Womens Long Jump Back to top
  Name Yr School Finals Wind H# Pts
1 Prandini, Jenna 12 Clovis 19-11.75(6.09m) +0.0 1 10
2 Torres, Abrianna 12 San Luis Obispo 19-04.75(5.91m) +0.0 1 8
3 Curenton, Ashlie 11 Silverado 18-07.50(5.68m) +0.4 1 6
4 Stewart, Shanice 12 Carter 18-02.25(5.54m) -0.5 1 5
5 Gibbs, Jasmine 11 El Camino 18-02.25(5.54m) +0.0 1 4
6 Sears, Je'nia 12 Edison 18-01.00(5.51m) +0.0 1 3
7 Anumba, Faith 12 Valencia (Valenc 17-10.50(5.45m) -0.1 1 2
8 Leath, Cydney 11 Mt Pleasant 17-02.00(5.23m) +0.0 1 1
9 Brewer, Ciarra 12 James Logan 17-02.00(5.23m) +0.0 1  
 
Womens Long Jump Back to top
  Name Yr School Prelims Wind H# Pts
1 Prandini, Jenna 12 Clovis 19-09.25(6.03m) +0.4 1  
2 Torres, Abrianna 12 San Luis Obispo 19-02.00(5.84m) +0.0 1  
3 Gibbs, Jasmine 11 El Camino 18-08.50(5.70m) +0.0 1  
4 Brewer, Ciarra 12 James Logan 18-06.00(5.64m) +0.0 1  
5 Sears, Je'nia 12 Edison 18-05.50(5.63m) +0.3 1  
5 Stewart, Shanice 12 Carter 18-05.50(5.63m) +0.0 1  
7 Curenton, Ashlie 11 Silverado 18-04.75(5.61m) +0.0 1  
8 Anumba, Faith 12 Valencia (Valenc 18-03.50(5.58m) +0.0 1  
9 Leath, Cydney 11 Mt Pleasant 18-02.50(5.55m) +1.0 1  
9 Walker, Shanique 12 Mt Pleasant 18-02.50(5.55m) +0.5 1  
11 Price, Kylie 12 Bishop Amat 18-02.25(5.54m) +0.0 1  
12 Armstrong, Akia 10 E. Roosevelt 17-10.50(5.45m) +0.0 1  
12 Scott, Mishe 11 El Camino 17-10.50(5.45m) +0.5 1  
14 Sato, Kristin 11 Valley Christian 17-08.75(5.40m) +1.0 1  
14 Taylor, Shea 11 Grace Davis 17-08.75(5.40m) +1.0 1  
16 Scott, Jamara 11 Golden Valley 17-08.00(5.38m) +0.4 1  
17 Nielsen, Kendal 11 Bear River 17-07.00(5.36m) +0.0 1  
18 Hicks, Traci 11 Poly (Long Beach 17-05.75(5.33m) +0.0 1  
19 Lyons, Charity 11 Mt Miguel 17-05.00(5.31m) +0.3 1  
20 Jenkins, Darnella 12 Deer Valley 17-04.50(5.30m) +0.6 1  
21 Smyers-Jones, Kortni 10 Holy Names 17-04.25(5.29m) +0.7 1  
22 Hannah, Hardy 12 Woodcreek 17-02.50(5.25m) +0.7 1  
23 Guinn, Jasmine 11 Berkeley 17-01.25(5.21m) +0.4 1  
24 Miller, Kierra 11 Carson 16-11.75(5.18m) +0.6 1  
25 Whitburn, Brooke 10 Pleasant Valley 16-09.00(5.11m) -0.1 1  
26 Speech, Melanie 11 Lowell 16-07.75(5.07m) +0.6 1  
27 Evans, Lanaa 10 Skyline 16-03.50(4.97m) -0.2 1  
28 Van, Monique 10 Steele Canyon 16-00.25(4.88m) +0.7 1  
29 Howard, Mariah 11 Cleveland 15-10.25(4.83m) +0.0 1  
30 Lopez, Hannah 10 Birmingham 15-08.25(4.78m) +0.0 1  

Notations:
c = converted Hand Timing
w = Wind Assisted (>2.0 meters per second)
^ = Altitude
Team Scores
Women - Team Rankings - 16 Events Scored =============================================================================== 1) Poly (LB) /ss SS 72 2) Clovis /ce CE 30 3) Harvard Westlake /ss 20 3) Mt. Pleasant /cc CC 20 3) Clovis West /ce CE 20 6) Rancho Verde /ss SS 19 7) Ventura /ss SS 15 8) San Luis Obisp/ss SS 13 8) Torrey Pines /sd SD 13 10) Rancho Cucamng/ss SS 12 11) San Marcos /ss SS 11 11) El Camino /sd SD 11 13) St. Mary's Academy/ss 10 13) James Logan /nc NC 10 13) St. Mary's /nc NC 10 13) Simi Valley /ss SS 10 13) Serra /ss SS 10 13) Los Osos /ss SS 10 13) Miller, A.B./ss SS 10 13) Carlsbad /sd SD 10 21) Oaks Christian/ss SS 9 22) Aptos /cc CC 8.50 23) Westview /sd SD 8 23) Foothill /ss SS 8 23) Bishop Amat /ss SS 8 23) West Hills /sd SD 8 23) Rancho Bernrdo/sd SD 8 23) Mountain View /cc CC 8 23) Templeton /ss 8 23) Paso Robles /ss SS 8 23) Etiwanda /ss SS 8 23) Holy Names /nc NC 8 33) Stockdale /ce CE 7 34) Canyon Crest Academy/sd 6 34) Redwood /ce CE 6 34) Granite Bay /sj SJ 6 34) Roosevelt, E/ss 6 34) Campolindo /nc NC 6 34) Vacaville /sj SJ 6 34) Silverado /ss SS 6 34) Rosemont/sj 6 34) Woodbridge /ss SS 6 34) La Sierra /ss SS 6 44) Buchach Colony /sj 5 44) North Torrance/ss SS 5 44) JSerra/ss 5 44) Edison /ce CE 5 44) Fairfield /sj SJ 5 44) Carson /la LA 5 44) Pinole Valley/nc NC 5 44) Hercules /nc NC 5 44) Newbury Park /ss SS 5 44) Clairmont /sd SD 5 44) Great Oak/ss 5 44) Beverly Hills /ss SS 5 44) Carter /ss 5 57) Las Lomas /nc NC 4 57) Buchanan /ce CE 4 57) Deer Valley /nc NC 4 57) Louisville /ss SS 4 57) San Marino /ss SS 4 57) El Toro /ss SS 4 63) Ayala /ss SS 3 63) Saugus /ss SS 3 63) Mira Costa /ss SS 3 63) La Costa Cnyn /sd SD 3 67) Lutheran (Orange) /ss 2.50 68) Valencia-V /ss SS 2 68) San Ramon Vlly/nc NC 2 68) Palos Verdes/ss 2 68) Piner /nc NC 2 68) Exeter /ce CE 2 73) Bella Vista /sj SJ 1.50 73) Presentation /cc CC 1.50 75) St. Ignatius /cc CC 1 75) Newark Mem /nc NC 1 75) Bullard /ce CE 1 75) North, JW /ss SS 1 75) Clovis North/ce 1 75) Wilcox /cc CC 1 75) Taft /la LA 1 Men - Team Rankings - 16 Events Scored =============================================================================== 1) Poly (LB) /ss SS 35 2) Loyola /ss SS 32 3) El Toro /ss SS 22 3) Serra /ss SS 22 5) Covina /ss SS 20 5) Agoura /ss SS 20 7) Davis /sj SJ 19 7) Dorsey /la LA 19 9) Scripps Ranch /sd SD 17 10) Notre Dame(SO)/ss SS 16 11) Newport Harbor/ss SS 15 12) Vista Murrieta/ss 14 12) Dos Pueblos /ss SS 14 12) Oaks Christian/ss SS 14 15) Canyon-Ana /ss SS 10 15) Trabuco Hills /ss SS 10 15) Otay Ranch /sd SD 10 15) San Jacinto /ss SS 10 15) Rancho Bernrdo/sd SD 10 15) Mt. Miguel /sd SD 10 21) Central /ce CE 9 22) South Pasadena/ss SS 8 22) Colony /ss 8 22) Indio /ss SS 8 22) Roosevelt, E/ss 8 22) Dublin /nc NC 8 22) California /nc NC 8 22) Las Lomas /nc NC 8 22) Oak Park /ss SS 8 30) El Camino /sd SD 7 30) Mt. Carmel /sd SD 7 30) Jesuit /sj SJ 7 30) Murrieta Vally/ss SS 7 34) Elk Grove /sj SJ 6 34) Arroyo Grande /ss SS 6 34) Sultana /ss SS 6 34) San Gorgonio /ss SS 6 34) West Covina /ss SS 6 34) Serra /sd SD 6 34) Rancho Cucamng/ss SS 6 34) Miller, A.B./ss SS 6 34) Buchanan /ce CE 6 34) Great Oak/ss 6 44) Torrey Pines /sd SD 5 44) Clovis /ce CE 5 44) King, ML /ss SS 5 44) Ramona /ss SS 5 44) Vista /sd SD 5 44) Redwood /ce CE 5 50) La Costa Cnyn /sd SD 4 50) Camarillo /ss SS 4 50) Muir /ss SS 4 50) Woodside /cc CC 4 50) The Urban-SF /nc NC 4 50) Claremont /ss SS 4 50) Kennedy /sj SJ 4 57) Kennedy-Richmond/nc 3 57) Dana Hills /ss SS 3 57) Granite Bay /sj SJ 3 57) Kearny /sd SD 3 57) Piner /nc NC 3 57) Bullard /ce CE 3 57) Canyon-CC /ss SS 3 64) Christian /sd SD 2.50 64) Clovis East /ce CE 2.50 66) Palo Alto /cc CC 2 66) Savanna /ss SS 2 66) Perris /ss SS 2 66) Vacaville /sj SJ 2 66) Escondido /sd SD 2 66) Arcadia /ss SS 2 66) Gilroy /cc CC 2 66) Rodriguez/sj SJ 2 66) Del Oro /sj SJ 2 66) Grant /sj SJ 2 66) Clayton Valley/nc NC 2 66) Millikan /ss SS 2 66) DeLaSalle /nc NC 2 79) Heritage/nc 1.50 79) Monterey /cc CC 1.50 81) San Leandro /nc NC 1 81) Santa Ynez /ss SS 1 81) Paramount /ss SS 1 81) Esperanza /ss SS 1 81) Prospect /cc CC 1 81) Bishop O'Dowd /nc NC 1 81) Manteca /sj SJ 1 81) Enterprise /no NO 1 81) St. John Bosco/ss SS 1 81) Mater Dei /ss SS 1

 



Post to:  
Post as: 
4 comment(s)  
Shane
dannyv
it is not being broadcast on that fox website!!!!!

You were looking at last years information, here is the link for 2012: http://www.runnerspa...d=142&year=2012
dannyv
it is not being broadcast on that fox website!!!!!
Andrew39
It will be Broadcast Live @ http://www.foxsports...ges/video_live/
WHIRL
Is this going to be Webcast? On RS or elsewhere? Not going to be able to make it and want to see it real-time.

Thanks

Whirl
 
 
Switch to Full Version